[[{"header":{"parameterUnit":"m.s-1","parameterCategory":1,"la1":30.2991,"la2":30.254,"lo1":-89.0895,"lo2":-89.0444,"dy":0.0017,"dx":0.0017,"nx":28,"ny":28,"refTime":"2025-03-09T09:00:00:Z","depth":0,"parameterNumber":2,"parameterNumberName":"U-component_of_WINDS"},"data":[0,0,0,0,0,0,0,0,0,0,0,0,0,0,0,0,0,0,0,0,0,0,0,0,0,0,0,0,0,0,0,0,0,0,0,0,0,0,0,0,0,0,0,0,0,0,0,0,0,0,0,0,0,0,0,0,0,0,-4.2669,-4.2669,0,-4.2703,-4.2704,-4.2704,-4.266,-4.2659,-4.2657,-4.2656,-4.2691,-4.2693,-4.2696,0,0,0,0,0,0,0,0,0,0,0,0,0,-4.2568,-4.2571,-4.2669,-4.2669,-4.267,-4.2703,-4.2704,-4.2704,-4.2661,-4.2659,-4.2657,-4.2655,-4.269,-4.2693,-4.2696,0,0,0,0,0,0,0,0,0,0,0,0,0,-4.2608,-4.2571,-4.2669,-4.2652,-4.2651,-4.2703,-4.2704,-4.2704,-4.2661,-4.2659,-4.2656,-4.2654,-4.2689,-4.2693,-4.2696,-4.2767,0,0,-4.2707,-4.2709,0,0,0,0,0,0,0,0,-4.2606,-4.2612,-4.2654,-4.2653,-4.2652,-4.2675,-4.2681,-4.2725,-4.2662,-4.2657,-4.2656,-4.2653,-4.2688,-4.2691,-4.2703,-4.2768,-4.277,-4.2708,-4.271,-4.2712,-4.2713,0,0,0,0,0,0,0,-4.2604,-4.261,-4.2683,-4.2655,-4.2654,-4.2644,-4.2647,-4.2689,-4.2685,-4.2657,-4.2654,-4.2659,-4.2687,-4.27,-4.2703,-4.277,-4.2708,-4.2711,-4.2713,-4.2715,-4.2899,-4.2902,0,0,0,0,0,0,-4.2603,-4.2608,-4.2681,-4.2684,-4.2623,-4.2648,-4.2651,-4.267,-4.2685,-4.2685,-4.2661,-4.2657,-4.2695,-4.2699,-4.2705,-4.2789,-4.2712,-4.2715,-4.2717,-4.2896,-4.29,-4.2903,0,0,0,0,0,0,-4.2601,-4.2609,-4.268,-4.2645,-4.2654,-4.2652,-4.2674,-4.2672,-4.2685,-4.2688,-4.2687,-4.2675,-4.2693,-4.2699,-4.2752,-4.279,-4.2717,-4.272,-4.2893,-4.2897,-4.2901,-4.2958,0,0,0,0,0,0,-4.2598,-4.2609,-4.2634,-4.2646,-4.2656,-4.2726,-4.2676,-4.2675,-4.2691,-4.2686,-4.27,-4.27,-4.2691,-4.2747,-4.2756,-4.2793,-4.2723,-4.289,-4.2895,-4.29,-4.2953,-4.2964,-4.2973,0,0,0,0,0,-4.2594,-4.2648,-4.2636,-4.2645,-4.2687,-4.2728,-4.2734,-4.2723,-4.2694,-4.2721,-4.2724,-4.27,-4.2785,-4.2753,-4.2762,-4.2802,-4.2887,-4.2894,-4.29,-4.2949,-4.2962,-4.2973,0,0,0,0,0,0,-4.2639,-4.2649,-4.2636,-4.2695,-4.2712,-4.2721,-4.2753,-4.2737,-4.2761,-4.2755,-4.2741,-4.2744,-4.2801,-4.2807,-4.2771,-4.2873,-4.2832,-4.284,-4.2866,-4.2878,-4.2888,-4.2885,-4.2726,0,0,0,0,0,-4.2657,-4.2689,-4.2696,-4.2748,-4.2757,-4.2754,-4.2772,-4.2762,-4.2778,-4.2785,-4.2791,-4.2808,-4.2839,-4.2859,-4.2888,-4.2955,-4.2958,-4.2987,-4.2997,-4.3006,-4.3012,-4.3051,-4.3064,-4.2923,-4.2923,-4.2923,0,0,-4.2692,-4.2701,-4.2722,-4.2757,-4.2769,-4.2803,-4.276,-4.2798,-4.2823,-4.2791,-4.2841,-4.2847,-4.2866,-4.2927,-4.2954,-4.2933,-4.3053,-4.3013,-4.302,-4.3022,-4.3058,-4.3072,-4.3084,-4.2927,-4.2926,-4.2926,0,0,-4.2773,-4.2783,-4.2828,-4.2842,-4.2861,-4.286,-4.2871,-4.2885,-4.2887,-4.2938,-4.2915,-4.2947,-4.3,-4.3015,-4.3029,-4.3123,-4.3102,-4.3133,-4.3184,-4.3222,-4.3233,-4.3243,-4.3276,-4.3289,-4.314,-4.314,-4.314,0,-4.2813,-4.2864,-4.2854,-4.2894,-4.2911,-4.2886,-4.2932,-4.2946,-4.2973,-4.2986,-4.2964,-4.3032,-4.3043,-4.3108,-4.3131,-4.3144,-4.3157,-4.3129,-4.3232,-4.3242,-4.3251,-4.3283,-4.3296,-4.3143,-4.3143,-4.3143,-4.3142,0,-4.2914,-4.295,-4.2985,-4.3013,-4.3034,-4.3078,-4.3075,-4.3099,-4.309,-4.3091,-4.3145,-4.3158,-4.319,-4.3205,-4.3195,-4.3271,-4.3258,-4.3234,-4.3192,-4.3268,-4.3298,-4.331,-4.3148,-4.3147,-4.3146,-4.3145,0,0,-4.3019,-4.3045,-4.3058,-4.3072,-4.3094,-4.3122,-4.3166,-4.3198,-4.3219,-4.3241,-4.3277,-4.3326,-4.3305,-4.3322,-4.3315,-4.3348,-4.3423,-4.3321,-4.3321,-4.3339,-4.3508,-4.3525,-4.3539,-4.3411,-4.3414,-4.3416,-4.3507,0,-4.31,-4.3176,-4.317,-4.3242,-4.3276,-4.3255,-4.3294,-4.3313,-4.3317,-4.3348,-4.3354,-4.3388,-4.3358,-4.3368,-4.3401,-4.3407,-4.3457,-4.3401,-4.3446,-4.3448,-4.344,-4.3554,-4.3571,-4.3656,-4.3518,-4.352,-4.3522,0,-4.3203,-4.323,-4.3306,-4.3326,-4.334,-4.3375,-4.3406,-4.3436,-4.3458,-4.3459,-4.3481,-4.3469,-4.3516,-4.3476,-4.354,-4.3503,-4.3522,-4.3528,-4.3532,-4.3533,-4.3487,-4.3559,-4.3683,-4.3695,-4.354,-4.3539,-4.3537,0,-4.3273,-4.3328,-4.3381,-4.3394,-4.3418,-4.3444,-4.3455,-4.3475,-4.3496,-4.3524,-4.3538,-4.3571,-4.3589,-4.3616,-4.3615,-4.3585,-4.3681,-4.364,-4.3684,-4.3684,-4.3702,-4.37,-4.383,-4.3718,-4.3717,-4.3717,-4.3717,0,-4.3363,-4.3409,-4.3413,-4.3445,-4.3498,-4.3493,-4.3546,-4.3556,-4.3575,-4.361,-4.3595,-4.3628,-4.3625,-4.3659,-4.3659,-4.3714,-4.3722,-4.3725,-4.3724,-4.3725,-4.3725,-4.3736,-4.3729,-4.372,-4.372,-4.3719,-4.3718,0,-4.3447,-4.3451,-4.3507,-4.3528,-4.3535,-4.3573,-4.3591,-4.3623,-4.3628,-4.3673,-4.3683,-4.3692,-4.3732,-4.3734,-4.378,-4.378,-4.3847,-4.384,-4.3839,-4.3837,-4.388,-4.3876,-4.402,-4.4039,-4.3915,-4.3917,-4.3918,0,-4.3502,-4.3538,-4.3564,-4.3587,-4.3601,-4.3637,-4.366,-4.3659,-4.3682,-4.3714,-4.3742,-4.3781,-4.3812,-4.3878,-4.3888,-4.3925,-4.3918,-4.3966,-4.3923,-4.3924,-4.3918,-4.3915,-4.392,-4.3973,-4.3975,-4.3976,-4.3977,0,-4.3601,-4.3603,-4.3635,-4.3671,-4.3698,-4.3725,-4.375,-4.377,-4.3773,-4.3801,-4.3843,-4.3867,-4.3916,-4.3955,-4.3992,-4.4005,-4.3992,-4.3991,-4.4003,-4.4003,-4.4001,-4.4003,-4.386,-4.3987,-4.3986,-4.3985,-4.3985,-4.3984,-4.3672,-4.3704,-4.3729,-4.3767,-4.3787,-4.3812,-4.3844,-4.3855,-4.3889,-4.3929,-4.3927,-4.3974,-4.4,-4.4047,-4.4064,-4.4101,-4.4085,-4.4102,-4.4106,-4.411,-4.4115,-4.3998,-4.4108,-4.4108,-4.4108,-4.4108,-4.4107,0,-4.377,-4.3786,-4.3821,-4.3858,-4.389,-4.3877,-4.3906,-4.3932,-4.3974,-4.3999,-4.4031,-4.4081,-4.412,-4.4137,-4.4176,-4.4203,-4.4198,-4.4213,-4.421,-4.4214,-4.4127,-4.4112,-4.4217,-4.4217,-4.4217,-4.4217,-4.4217,-4.4217,-4.3824,-4.3878,-4.3884,-4.3949,-4.3965,-4.4011,-4.4028,-4.4053,-4.4073,-4.413,-4.4163,-4.4174,-4.4197,-4.4238,-4.4275,-4.4279,-4.4294,-4.4312,-4.4313,-4.4231,-4.422,-4.4209,-4.4195,-4.4315,-4.4315,-4.4397,-4.4397,-4.4398]},{"header":{"parameterUnit":"m.s-1","parameterCategory":1,"la1":30.2991,"la2":30.254,"lo1":-89.0895,"lo2":-89.0444,"dy":0.0017,"dx":0.0017,"nx":28,"ny":28,"refTime":"2025-03-09T09:00:00:Z","depth":0,"parameterNumber":3,"parameterNumberName":"V-component_of_WINDS"},"data":[0,0,0,0,0,0,0,0,0,0,0,0,0,0,0,0,0,0,0,0,0,0,0,0,0,0,0,0,0,0,0,0,0,0,0,0,0,0,0,0,0,0,0,0,0,0,0,0,0,0,0,0,0,0,0,0,0,0,1.0118,1.0118,0,1.0132,1.0132,1.0132,1.0155,1.0156,1.0156,1.0156,1.017,1.017,1.017,0,0,0,0,0,0,0,0,0,0,0,0,0,1.0112,1.0112,1.0118,1.0118,1.0118,1.0132,1.0132,1.0132,1.0155,1.0156,1.0156,1.0157,1.017,1.017,1.017,0,0,0,0,0,0,0,0,0,0,0,0,0,1.0119,1.0112,1.0118,1.0131,1.0133,1.0132,1.0132,1.0132,1.0155,1.0156,1.0156,1.0157,1.017,1.017,1.017,1.0157,0,0,1.017,1.017,0,0,0,0,0,0,0,0,1.0119,1.0119,1.0129,1.013,1.0132,1.0142,1.0135,1.014,1.0155,1.0146,1.0156,1.0157,1.016,1.0161,1.0163,1.0158,1.0158,1.017,1.017,1.017,1.017,0,0,0,0,0,0,0,1.0118,1.0119,1.0123,1.0129,1.0131,1.0137,1.0139,1.0136,1.015,1.0147,1.0149,1.015,1.0161,1.0162,1.0163,1.0159,1.017,1.017,1.017,1.017,1.0146,1.0146,0,0,0,0,0,0,1.0116,1.0118,1.0123,1.0124,1.0127,1.0137,1.0139,1.0138,1.015,1.0152,1.015,1.0151,1.0162,1.0163,1.0164,1.015,1.017,1.017,1.017,1.0147,1.0146,1.0146,0,0,0,0,0,0,1.0116,1.0116,1.0122,1.0122,1.0123,1.0136,1.0136,1.0138,1.0139,1.0152,1.0154,1.0148,1.0163,1.0164,1.0159,1.0151,1.017,1.017,1.0148,1.0147,1.0146,1.0123,0,0,0,0,0,0,1.0115,1.0116,1.011,1.0121,1.0123,1.0117,1.0135,1.0138,1.0139,1.0142,1.0151,1.0153,1.0163,1.0159,1.0159,1.0151,1.017,1.0148,1.0147,1.0146,1.0125,1.0122,1.0119,0,0,0,0,0,1.0115,1.0103,1.011,1.011,1.0116,1.0116,1.0117,1.0129,1.0139,1.0134,1.0142,1.0153,1.0152,1.0158,1.0159,1.0151,1.0149,1.0148,1.0146,1.0126,1.0122,1.0119,0,0,0,0,0,0,1.009,1.0104,1.0112,1.0103,1.0109,1.012,1.0114,1.0125,1.0127,1.0129,1.0144,1.0146,1.014,1.0145,1.0152,1.014,1.0152,1.0151,1.0137,1.0133,1.0131,1.013,1.017,0,0,0,0,0,1.0083,1.0082,1.0095,1.0085,1.0088,1.0101,1.0101,1.011,1.0116,1.0119,1.0126,1.0132,1.0133,1.0134,1.0135,1.0126,1.0129,1.0121,1.0118,1.0115,1.0114,1.0111,1.0108,1.0141,1.0141,1.0141,0,0,1.0069,1.0077,1.0075,1.0081,1.0086,1.0085,1.0102,1.01,1.01,1.0118,1.0115,1.0121,1.0128,1.0122,1.0119,1.0126,1.0106,1.0114,1.0112,1.0112,1.011,1.0106,1.0104,1.014,1.014,1.0141,0,0,1.0044,1.0049,1.0043,1.0048,1.0056,1.0065,1.0064,1.0075,1.008,1.0077,1.0091,1.0092,1.0093,1.0098,1.0101,1.008,1.0091,1.008,1.0065,1.0062,1.006,1.0058,1.0052,1.0049,1.0079,1.0079,1.0079,0,1.0025,1.0024,1.0038,1.0036,1.0039,1.0056,1.0051,1.0055,1.0063,1.0065,1.0072,1.0076,1.0082,1.0078,1.0073,1.0074,1.0074,1.0079,1.0059,1.0057,1.0055,1.005,1.0047,1.0078,1.0078,1.0078,1.0078,0,1.0002,1.0002,0.9996,1.0004,1.0006,1.0002,1.0016,1.0017,1.0026,1.0035,1.0033,1.0041,1.0045,1.0045,1.0054,1.0043,1.0047,1.0056,1.0069,1.0051,1.0046,1.0043,1.0076,1.0076,1.0077,1.0077,0,0,0.996,0.9978,0.9975,0.998,0.9992,0.9992,0.9989,0.9994,0.9995,1.0001,1.0,1.0002,1.0011,1.0015,1.0024,1.0022,1.0007,1.0032,1.0033,1.0028,0.9997,0.999,0.9987,1.0014,1.0014,1.0014,0.9997,0,0.9937,0.9934,0.9948,0.9941,0.9942,0.996,0.9958,0.9965,0.9973,0.9976,0.9985,0.9987,0.9999,1.0001,0.9999,1.0009,1.0001,1.001,1.0014,1.0014,1.0012,0.9985,0.9977,0.9961,0.9995,0.9995,0.9994,0,0.991,0.9915,0.9909,0.9923,0.9924,0.9922,0.9929,0.993,0.994,0.9946,0.9951,0.9963,0.9962,0.9975,0.9975,0.9981,0.9984,0.9989,0.9989,0.999,1.0003,0.9986,0.9955,0.9953,0.9991,0.9991,0.9992,0,0.9881,0.9887,0.9884,0.9888,0.9904,0.9902,0.9909,0.9919,0.9922,0.9928,0.993,0.9936,0.9939,0.9944,0.9958,0.9965,0.9957,0.997,0.9963,0.9963,0.996,0.996,0.9931,0.9961,0.9961,0.9961,0.9961,0,0.9855,0.985,0.9872,0.987,0.9867,0.9883,0.9879,0.9887,0.9897,0.9898,0.9913,0.9914,0.9932,0.9935,0.9946,0.9945,0.9946,0.9952,0.9955,0.9951,0.995,0.9953,0.9955,0.996,0.996,0.9961,0.9961,0,0.9821,0.9835,0.9834,0.985,0.9854,0.9851,0.9865,0.9864,0.9875,0.9876,0.9877,0.9893,0.9898,0.9912,0.992,0.9927,0.9924,0.9929,0.9921,0.9923,0.9916,0.9916,0.9887,0.9885,0.9916,0.9915,0.9915,0,0.9804,0.9801,0.9817,0.982,0.9826,0.9829,0.9832,0.9849,0.9852,0.9864,0.9862,0.9869,0.9874,0.9881,0.9894,0.99,0.9906,0.9896,0.9907,0.9904,0.9907,0.9908,0.9908,0.9893,0.9893,0.9892,0.9892,0,0.9771,0.9779,0.9784,0.9792,0.9796,0.9803,0.981,0.9811,0.983,0.9833,0.9838,0.9843,0.9852,0.9858,0.9867,0.9875,0.9887,0.9888,0.9887,0.9883,0.9879,0.9882,0.9915,0.9889,0.9889,0.9889,0.989,0.989,0.9746,0.9746,0.9757,0.9763,0.9771,0.9778,0.9779,0.979,0.9795,0.9804,0.9814,0.9819,0.983,0.9844,0.985,0.9855,0.9861,0.9859,0.9859,0.9858,0.9857,0.9878,0.9856,0.9856,0.9857,0.9857,0.9857,0,0.9716,0.9725,0.973,0.9741,0.9745,0.9757,0.9767,0.977,0.9774,0.9784,0.979,0.9797,0.9804,0.9818,0.9826,0.9827,0.9833,0.9828,0.9829,0.9831,0.985,0.9851,0.9824,0.9824,0.9824,0.9824,0.9824,0.9824,0.97,0.9701,0.971,0.9715,0.9724,0.9729,0.9734,0.9741,0.975,0.9757,0.9763,0.9772,0.9784,0.9794,0.9801,0.9805,0.9808,0.9802,0.9808,0.9826,0.9829,0.9832,0.9833,0.9802,0.9802,0.9788,0.9788,0.9788]}]]